Terug naar catalogus

FENGYUN 1C DEB

LostSSO
NORAD 31853·DEBRIS·🇨🇳 China

Gelanceerd May 10, 1999 vanaf Taiyuan Satellite Launch Center

Loading…

Volgende Passages (komende 24 uur)

TLE

VerouderdSource: Space-Track

Epoch: Oct 22, 2012, 18:31 UTC

1 31853U 99025CJT 12296.77196088  .00000808  00000-0  56122-3 0  9996
2 31853  99.0148 272.9740 0042449 141.6565 225.0087 14.01298154287315

Volg FENGYUN 1C DEB in realtime met AllMySat

Download on the App Store